Regional Weather Roundup
Issued by NWS

Home | Current Version | Previous Version | Graphics & Text | Print | Product List | Glossary On
Versions: 1 2 3 4 5 6 7 8 9 10 11 12 13 14 15 16 17 18 19 20 21 22 23 24 25 26 27 28 29 30 31 32 33 34 35 36 37 38 39 40 41 42 43 44 45 46 47 48 49 50
000
ASUS43 KTOP 251308
RWRKS

WEATHER ROUNDUP FOR KANSAS
NATIONAL WEATHER SERVICE GOODLAND KS
800 AM CDT MON MAY 25 2015

NOTE:  "FAIR" INDICATES FEW OR NO CLOUDS BELOW 12,000 FEET WITH NO
SIGNIFICANT WEATHER AND/OR OBSTRUCTIONS TO VISIBILITY.

KSZ001>006-013>018-027>032-041>047-251400-
NORTHWEST KANSAS

CITY           SKY/WX    TMP DP  RH WIND       PRES   REMARKS
GOODLAND       SUNNY     51  47  86 W10       29.84R
HAYS           CLOUDY    57  48  72 S6        29.83R
HILL CITY      MOSUNNY   54  53  97 CALM      29.83R
RUSSELL        CLOUDY    57  56  96 SE14      29.81R
$$

KSZ061>065-074>080-084>089-251400-
SOUTHWEST KANSAS

CITY           SKY/WX    TMP DP  RH WIND       PRES   REMARKS
DODGE CITY     FOG       56  55  97 S6        29.80F VSB 1/4
ELKHART          N/A     51  45  80 W5          N/A
GARDEN CITY    FOG       53  53 100 NE3       29.82R VSB 1/4
GREAT BEND     CLOUDY    57  52  82 SE8       29.82R
LIBERAL        SUNNY     54  48  82 NW8       29.83S
PRATT          CLOUDY    55  54  94 SE7       29.82S
$$

KSZ066>073-081>083-090>101-251400-
SOUTHEAST KANSAS

CITY           SKY/WX    TMP DP  RH WIND       PRES   REMARKS
CHANUTE        RAIN      63  62  97 NW7       29.94R FOG
COFFEYVILLE    CLOUDY    66  65  96 S10       29.90R
HUTCHINSON     CLOUDY    59  56  89 SE10      29.84R
MEDICINE LODGE   N/A     60  60 100 SE10      29.82R
NEWTON         CLOUDY    57  54  88 SE8       29.88R
PARSONS        CLOUDY    66  66 100 S8        29.92R FOG
WICHITA INTL   CLOUDY    60  57  89 E12       29.85S
WICHITA JABRA  CLOUDY    58  57  97 E9        29.86F
WICHITA MCCONL CLOUDY    59  57  93 E10       29.86S
WINFIELD       CLOUDY    63  63 100 E7        29.89S
$$

KSZ007>012-019>026-033>040-048>060-102>105-251400-
NORTHEAST KANSAS

CITY           SKY/WX    TMP DP  RH WIND       PRES   REMARKS
CONCORDIA      PTSUNNY   59  56  89 S7        29.81R
EMPORIA        PTSUNNY   59  57  93 E8        29.88F
LAWRENCE       LGT RAIN  61  59  93 SE3       29.96F FOG
MANHATTAN      CLOUDY    61  59  93 SE6       29.83R
OLATHE IND     RAIN      61  60  97 W7        29.99R FOG
OLATHE EXE     LGT RAIN  62  60  93 W8        29.99R
SALINA         MOSUNNY   60  56  86 S9        29.82S
TOPEKA BILLARD LGT RAIN  61  60  97 E21G33    29.83F FOG
TOPEKA FORBES  LGT RAIN  61  58  90 E13       29.83F
$$


USA.gov is the U.S. government's official web portal to all federal, state and local government web resources and services.